Content
SEND FEEDBACK

Daily
Averages
Monthly
Summary
United States of America

KENTLAND, INDIANA


Home > North America > United States > Indiana
Elevation: 688 feet     Latitude: 40 46N     Longitude: 087 26W

WEATHER
 
SELECT A DAY
Number of Records: 76,507;   Date Range: 5/23/11 - 8/29/14
 
SHARE

PRINT THIS DATA

[ ← Previous Day ]
WEATHER ALMANAC - FEBRUARY 13, 2013
[ Next Day → ]
[ °C ]   °F
Weather ElementAverageHighLow
Temperature33.1 °F44.6 °F (1:15 pm)23 °F (12:35 am)
Dewpoint29.1 °F32 °F (8:55 am)23 °F (12:35 am)
Humidity86.8 %100 % (12:35 am)61 % (1:15 pm)
Barometer29.81 in29.94 in (12:35 am)29.74 in (1:55 pm)
Wind Speed5.7 mph16.1 mph (2:55 pm)
Wind Gust18.4 mph (2:15 pm)
Weather ElementAverage
Visibility7.2 mi
Wind DirectionSSE (145.2 °)

Weather ElementTotal
Precipitation---
Heating Degree Days31.2 (Base 65)
Averaged from 71 records on February 13, 2013
WEATHER CONDITIONS BREAKOUT
WIND DIRECTION BREAKOUT
WEATHER BY HOUR - FEBRUARY 13, 2013
[ °C ]   °F
Local TimeTemperatureDewpointHumidityBarometerVisibilityWind DirectionWind SpeedGust SpeedPrecipitationEventsConditions
12:35 AM23.0 °F23.0 °F100 %29.94 in2.0 miCalmMostly Cloudy
12:55 AM23.0 °F23.0 °F100 %29.94 in4.0 miCalmClear
1:15 AM23.0 °F23.0 °F100 %29.93 in4.0 miCalmClear
1:35 AM23.0 °F23.0 °F100 %29.92 in4.0 miCalmClear
1:55 AM24.8 °F24.8 °F100 %29.91 in4.0 miCalmClear
2:15 AM23.0 °F23.0 °F100 %29.91 in4.0 miCalmClear
2:35 AM23.0 °F23.0 °F100 %29.90 in4.0 miCalmClear
2:55 AM23.0 °F23.0 °F100 %29.89 in4.0 miCalmClear
3:15 AM23.0 °F23.0 °F100 %29.88 in4.0 miCalmClear
3:35 AM23.0 °F23.0 °F100 %29.89 in4.0 miCalmClear
3:55 AM23.0 °F23.0 °F100 %29.88 in4.0 miCalmClear
4:15 AM23.0 °F23.0 °F100 %29.87 in4.0 miCalmClear
4:35 AM23.0 °F23.0 °F100 %29.86 in4.0 miCalmScattered Clouds
4:55 AM23.0 °F23.0 °F100 %29.86 in5.0 miCalmScattered Clouds
5:15 AM24.8 °F23.0 °F93 %29.85 in4.0 miCalmScattered Clouds
5:35 AM23.0 °F23.0 °F100 %29.84 in5.0 miCalmScattered Clouds
5:55 AM23.0 °F23.0 °F100 %29.83 in4.0 miCalmClear
6:15 AM24.8 °F24.8 °F100 %29.83 in4.0 miCalmClear
6:35 AM24.8 °F23.0 °F93 %29.83 in5.0 miCalmClear
6:55 AM24.8 °F23.0 °F93 %29.83 in5.0 miSSE (160°)3.5 mphClear
7:15 AM24.8 °F24.8 °F100 %29.83 in4.0 miSouth (170°)3.5 mphClear
7:35 AM26.6 °F26.6 °F100 %29.83 in3.0 miCalmClear
7:55 AM28.4 °F28.4 °F100 %29.83 in3.0 miSouth (170°)4.6 mphScattered Clouds
8:15 AM30.2 °F30.2 °F100 %29.83 in4.0 miSouth (170°)5.8 mphScattered Clouds
8:35 AM30.2 °F30.2 °F100 %29.83 in4.0 miSouth (180°)5.8 mphClear
8:55 AM32.0 °F32.0 °F100 %29.83 in5.0 miSouth (180°)8.1 mphScattered Clouds
9:15 AM33.8 °F32.0 °F93 %29.83 in5.0 miSouth (180°)9.2 mphClear
9:35 AM33.8 °F32.0 °F93 %29.83 in7.0 miSouth (180°)8.1 mphClear
9:55 AM35.6 °F32.0 °F87 %29.83 in7.0 miSouth (170°)10.4 mphClear
10:15 AM35.6 °F32.0 °F87 %29.83 in7.0 miSouth (190°)10.4 mphClear
10:35 AM35.6 °F32.0 °F87 %29.82 in7.0 miSSW (200°)10.4 mphClear
10:55 AM37.4 °F32.0 °F81 %29.82 in7.0 miSSW (200°)12.7 mphClear
11:15 AM39.2 °F32.0 °F75 %29.81 in10.0 miSW (220°)11.5 mphScattered Clouds
11:35 AM41.0 °F32.0 °F70 %29.81 in10.0 miSSW (210°)10.4 mphScattered Clouds
11:55 AM41.0 °F32.0 °F70 %29.79 in10.0 miSSW (210°)10.4 mphScattered Clouds
12:15 PM42.8 °F32.0 °F66 %29.78 in10.0 miSW (220°)9.2 mphClear
12:35 PM42.8 °F32.0 °F66 %29.76 in10.0 miSW (220°)9.2 mphClear
12:55 PM42.8 °F32.0 °F66 %29.76 in10.0 miSSW (210°)12.7 mphClear
1:15 PM44.6 °F32.0 °F61 %29.75 in10.0 miSSW (200°)12.7 mphClear
1:35 PM44.6 °F32.0 °F61 %29.75 in10.0 miSW (230°)12.7 mphClear
1:55 PM44.6 °F32.0 °F61 %29.74 in10.0 miSW (220°)12.7 mphClear
2:15 PM44.6 °F32.0 °F61 %29.74 in10.0 miSW (220°)15.0 mph18.4 mphClear
2:35 PM44.6 °F32.0 °F61 %29.74 in10.0 miSW (220°)12.7 mph18.4 mphClear
2:55 PM44.6 °F32.0 °F61 %29.74 in10.0 miSW (230°)16.1 mphClear
3:15 PM44.6 °F32.0 °F61 %29.74 in10.0 miWSW (240°)12.7 mph18.4 mphClear
3:35 PM44.6 °F32.0 °F61 %29.74 in10.0 miSW (230°)11.5 mphClear
3:55 PM44.6 °F32.0 °F61 %29.74 in10.0 miWSW (240°)13.8 mphClear
4:15 PM44.6 °F32.0 °F61 %29.75 in10.0 miWSW (240°)10.4 mphClear
4:35 PM42.8 °F32.0 °F66 %29.75 in10.0 miWSW (240°)9.2 mphClear
4:55 PM41.0 °F32.0 °F70 %29.75 in10.0 miWSW (240°)8.1 mphClear
5:15 PM41.0 °F32.0 °F70 %29.76 in10.0 miWSW (240°)9.2 mphClear
5:35 PM39.2 °F32.0 °F75 %29.76 in10.0 miWSW (250°)9.2 mphScattered Clouds
5:55 PM37.4 °F32.0 °F81 %29.77 in10.0 miWSW (250°)8.1 mphScattered Clouds
6:15 PM37.4 °F32.0 °F81 %29.78 in10.0 miWest (260°)5.8 mphScattered Clouds
6:35 PM35.6 °F32.0 °F87 %29.78 in10.0 miWSW (250°)5.8 mphScattered Clouds
6:55 PM35.6 °F32.0 °F87 %29.79 in10.0 miSW (230°)4.6 mphScattered Clouds
7:15 PM35.6 °F32.0 °F87 %29.79 in10.0 miSW (230°)4.6 mphClear
7:35 PM33.8 °F32.0 °F93 %29.78 in10.0 miSW (230°)5.8 mphClear
7:55 PM33.8 °F32.0 °F93 %29.79 in10.0 miSW (230°)4.6 mphScattered Clouds
8:15 PM33.8 °F32.0 °F93 %29.79 in10.0 miSW (230°)5.8 mphScattered Clouds
8:35 PM33.8 °F32.0 °F93 %29.79 in10.0 miWSW (240°)4.6 mphScattered Clouds
8:55 PM32.0 °F32.0 °F100 %29.79 in7.0 miCalmMostly Cloudy
9:15 PM32.0 °F32.0 °F100 %29.79 in10.0 miCalmMostly Cloudy
9:35 PM33.8 °F32.0 °F93 %29.79 in10.0 miSSW (210°)3.5 mphMostly Cloudy
9:55 PM32.0 °F32.0 °F100 %29.79 in7.0 miSW (220°)3.5 mphScattered Clouds
10:15 PM32.0 °F32.0 °F100 %29.79 in7.0 miCalmMostly Cloudy
10:35 PM33.8 °F32.0 °F93 %29.79 in10.0 miWSW (240°)4.6 mphMostly Cloudy
10:55 PM32.0 °F30.2 °F93 %29.79 in7.0 miSW (220°)4.6 mphScattered Clouds
11:15 PM32.0 °F30.2 °F93 %29.79 in7.0 miSSW (210°)5.8 mphScattered Clouds
11:35 PM32.0 °F30.2 °F93 %29.78 in7.0 miSouth (190°)4.6 mphScattered Clouds
11:55 PM32.0 °F30.2 °F93 %29.78 in7.0 miSouth (190°)4.6 mphMostly Cloudy
Hourly data recorded from KRZL, located miles away from Kentland, Indiana







STORIES FROM OUR PARTNERS